RH
24 25 26 27 27 28 28 27 25 22 19 15 12 11 10 11 12 13 14 14 15 15 16 16 16 16 16 16 16 15 15 15 14 14 14 13 12 12 11 11 12 14
27 28 28 28 28 27 25 22 19 16 13 11 10 11 12 14 16 17 18 18 17 17 16 16 16 16 16 16 16 16 16 16 16 16 16 15 15 15 14 13 12 12
29 28 28 27 24 22 19 17 14 12 11 11 12 15 17 19 20 21 20 18 17 16 16 16 16 16 17 17 17 17 17 17 17 17 17 16 16 16 16 15 15 14
28 26 24 22 19 18 16 13 12 11 12 14 17 20 22 23 23 21 20 18 18 17 18 18 19 19 19 19 19 19 19 18 18 19 18 17 17 17 16 16 15 15
23 21 19 18 16 15 13 12 12 13 15 18 21 24 25 25 23 21 20 20 20 21 21 22 22 22 22 22 22 21 21 20 20 20 20 19 18 18 17 17 16 15
18 18 17 16 15 13 12 12 13 16 18 21 24 27 27 25 23 22 21 22 23 24 25 26 26 25 25 25 24 24 23 23 22 22 21 20 19 19 19 20 19 18
17 17 16 15 14 13 13 14 17 19 22 25 28 29 29 26 24 24 24 25 27 28 29 29 29 29 29 28 27 26 26 25 23 22 20 20 20 20 22 24 25 24
16 16 15 14 13 13 15 17 20 23 26 28 30 32 31 29 28 28 28 29 30 32 33 33 33 32 32 31 30 29 27 25 23 22 22 23 25 27 29 32 33 32
16 15 14 14 14 15 18 21 24 27 29 31 33 35 33 32 32 32 32 34 36 37 37 37 37 36 35 34 32 30 28 25 23 24 27 30 33 36 38 40 41 39
16 15 15 15 15 18 21 24 28 31 33 35 36 36 35 34 35 35 37 39 41 42 42 41 40 38 37 36 35 32 28 25 27 31 35 38 40 42 43 44 45 43
16 16 17 17 18 21 24 28 31 34 37 38 38 39 38 38 38 39 41 44 45 46 46 45 44 42 41 39 36 32 30 31 35 40 43 44 45 46 46 46 45 44
17 18 18 19 21 24 28 31 34 37 39 41 41 42 41 41 42 43 46 48 50 51 50 49 48 46 44 42 37 33 34 40 45 47 48 48 47 47 47 47 45 44
19 19 19 21 24 27 31 34 37 41 43 44 45 45 44 45 46 48 50 52 54 55 55 54 51 49 48 43 38 37 42 48 51 52 51 49 48 48 47 47 46 44
20 21 22 25 28 30 33 37 40 43 46 47 48 47 48 49 50 52 55 57 60 61 60 59 55 53 51 45 40 43 51 56 56 56 54 51 50 49 48 48 46 45
23 24 26 28 31 33 36 39 42 45 48 50 51 51 53 54 55 58 60 62 65 65 64 62 59 57 53 46 44 49 55 57 57 55 53 51 49 48 46 45 44 44
26 28 30 32 34 35 38 40 44 48 51 53 55 56 57 59 60 63 66 68 69 68 67 65 62 60 55 48 49 56 61 62 60 57 55 54 51 47 44 43 44 47
30 32 33 35 36 38 39 42 45 49 53 55 58 60 61 63 65 68 71 73 73 71 68 65 63 62 56 49 52 61 68 71 69 66 64 64 59 52 47 48 51 53
33 34 35 36 38 40 41 43 46 50 54 58 60 63 65 67 70 73 76 78 76 73 69 66 65 64 57 52 55 62 69 74 76 76 75 70 65 59 56 57 57 57
35 36 37 38 40 42 43 45 48 51 55 59 62 66 69 71 74 77 79 80 77 73 70 67 66 65 58 53 57 63 69 75 79 80 77 70 66 65 65 63 62 61
35 36 38 39 40 43 44 46 50 53 57 62 65 69 72 75 79 81 81 81 77 74 71 67 67 67 59 54 59 64 69 75 77 75 72 70 69 69 68 66 64 64
35 35 36 38 40 42 44 47 51 54 58 64 68 72 76 78 81 82 81 79 77 75 71 67 69 70 62 58 62 68 71 74 74 72 71 72 70 67 66 66 65 66
35 35 35 37 38 40 42 46 50 54 60 65 69 73 77 81 83 83 82 79 77 76 73 67 69 71 65 60 64 70 73 73 71 70 70 69 66 64 65 66 69 71
35 35 35 36 37 39 41 44 48 54 60 66 70 74 78 83 85 84 83 81 78 77 75 68 68 71 65 60 64 72 74 72 71 72 72 69 65 65 67 69 74 78
34 35 36 37 37 38 40 42 46 52 58 65 70 76 81 85 86 84 83 82 79 78 76 70 69 72 67 62 69 75 75 76 80 81 79 75 71 70 72 73 75 77
33 35 37 37 38 39 39 41 45 50 57 64 72 80 84 86 88 85 81 81 81 79 78 74 74 75 69 66 73 77 76 83 92 91 86 83 80 79 78 74 70 71
34 36 38 39 39 39 39 40 44 49 56 64 74 83 87 88 89 86 81 80 81 80 79 78 79 78 71 68 74 77 78 89 98 98 95 93 90 87 80 70 65 66
Wind_Speed
51 51 51 51 50 50 50 49 48 48 47 45 43 41 39 38 38 39 40 40 41 42 42 43 44 45 46 47 48 49 49 50 50 51 52 52 53 53 54 54 55 56
51 51 51 51 50 50 50 49 48 46 44 42 40 38 38 38 38 39 40 41 42 43 44 44 45 46 47 48 49 50 51 51 52 52 53 53 54 55 55 56 56 57
51 51 51 51 50 50 49 48 46 43 40 38 37 37 37 38 39 39 40 41 42 43 44 45 46 47 48 49 50 51 52 52 53 54 55 55 55 56 57 57 58 58
52 52 51 51 50 49 48 46 43 39 37 36 36 37 37 38 39 39 40 41 42 43 44 46 47 48 49 50 51 52 53 54 55 56 57 58 58 58 59 59 59 59
52 52 52 51 50 49 47 44 40 37 36 36 37 37 38 39 39 40 40 41 42 44 45 47 48 49 51 52 53 54 55 57 57 58 59 60 60 60 60 61 61 61
52 52 51 50 49 47 45 41 38 37 37 37 38 39 39 40 40 40 41 42 43 45 46 48 49 51 52 53 54 55 57 58 60 60 61 61 60 59 59 59 60 61
52 51 51 49 47 45 42 39 38 37 38 38 39 40 40 40 41 41 43 44 45 46 47 49 51 52 54 55 56 57 58 60 61 61 60 59 58 57 56 55 56 57
51 50 49 48 46 43 40 38 38 38 38 39 39 40 40 41 42 42 43 44 46 47 48 50 51 53 54 56 57 58 59 60 60 59 58 56 55 54 53 52 52 53
49 48 47 46 44 41 38 38 38 38 39 39 40 40 40 41 42 43 44 45 46 48 49 50 51 53 54 55 57 58 59 59 57 56 54 53 52 52 51 50 50 51
48 47 46 44 42 39 38 38 38 38 39 40 40 41 41 41 42 43 44 45 47 48 49 51 52 53 54 55 56 57 57 56 54 52 51 51 51 51 50 49 49 49
48 46 45 43 40 39 38 38 38 38 39 40 40 41 42 42 43 44 45 46 47 48 50 51 52 53 54 55 55 55 54 52 50 50 49 49 49 49 49 48 48 48
48 46 44 42 40 38 38 38 38 39 39 40 41 41 42 43 44 45 46 47 48 49 51 52 52 53 54 54 54 52 50 48 48 48 48 48 47 47 47 47 47 47
47 46 44 42 40 39 38 38 39 39 40 40 41 42 43 44 45 46 47 48 49 50 51 52 53 53 53 53 52 49 47 47 47 47 46 46 46 46 46 46 46 46
47 45 43 41 40 39 39 39 39 40 40 40 41 42 43 44 46 47 48 48 49 50 51 52 52 52 52 52 49 47 45 45 45 45 45 45 45 44 44 44 44 44
46 44 43 42 41 40 39 39 40 40 41 41 42 43 44 45 46 47 48 48 49 50 51 51 51 51 51 49 47 45 44 44 44 44 44 44 44 43 43 43 42 41
45 44 43 42 41 40 40 40 40 41 41 41 42 43 44 45 46 47 47 48 49 49 50 50 50 50 49 47 44 43 43 43 44 44 44 44 44 44 43 42 41 41
44 43 43 42 41 41 40 40 40 41 41 42 43 43 44 45 46 47 47 47 48 49 49 50 49 48 47 45 42 40 40 41 42 43 44 44 45 45 43 42 41 40
43 43 43 42 41 41 41 40 40 41 41 42 43 44 45 45 46 47 47 47 48 48 49 49 48 47 45 43 40 38 37 38 40 41 43 45 45 45 43 41 40 39
44 44 43 42 41 41 41 40 40 41 41 42 43 44 45 45 46 47 47 46 47 47 48 48 47 45 44 41 39 37 36 36 37 40 43 44 44 43 41 40 39 38
44 44 43 42 41 41 41 40 40 41 41 42 43 44 45 45 46 46 46 46 46 47 47 47 45 44 43 40 38 36 35 35 37 40 42 42 42 41 40 38 37 37
43 43 43 42 42 41 40 40 40 41 41 42 43 44 44 45 46 46 46 45 45 46 47 46 44 42 41 39 36 35 34 35 38 39 40 40 39 39 38 38 37 36
43 43 42 42 41 41 41 40 41 41 41 42 43 43 44 45 45 46 45 45 45 46 46 45 43 41 39 37 35 33 34 35 37 38 39 39 38 37 37 37 36 35
43 43 42 41 41 41 41 40 41 41 41 42 43 43 44 44 45 45 44 44 45 45 45 45 42 40 38 36 34 32 33 35 37 38 39 40 39 38 37 37 35 34
43 42 42 41 41 40 40 40 40 41 41 41 42 43 44 44 44 44 44 43 44 44 45 44 42 40 38 35 32 31 32 34 36 38 40 41 40 39 38 36 35 33
43 42 42 41 41 40 40 40 40 40 41 41 42 43 43 43 44 44 43 43 43 44 44 44 43 40 37 33 30 30 31 32 34 37 39 40 40 40 39 37 34 32
42 42 41 41 40 40 40 39 39 40 41 41 41 42 43 43 43 43 43 42 42 43 42 42 42 40 35 31 29 29 28 29 32 35 37 38 40 41 40 38 34 31
Wind_Direction
308 308 308 308 308 308 307 307 307 306 306 305 304 303 303 303 304 304 304 305 304 304 304 303 303 302 301 300 299 297 296 294 293 291 290 288 286 284 282 280 278 276
309 309 308 308 308 307 307 306 306 305 304 303 302 302 303 304 305 305 306 306 306 306 306 306 305 304 303 302 300 299 297 295 293 292 290 288 287 285 283 281 279 278
310 309 309 308 308 307 306 306 305 303 301 301 301 302 303 305 305 306 307 307 308 308 308 308 308 307 306 304 303 301 299 298 296 294 291 289 287 285 283 282 280 278
310 310 309 308 308 307 306 305 303 300 299 299 301 302 304 304 305 306 307 308 309 309 309 310 309 309 307 306 305 303 302 300 298 297 294 292 289 286 283 281 279 278
310 309 309 308 307 306 305 303 300 298 298 299 301 302 304 304 305 306 307 308 309 310 310 310 310 309 309 308 307 305 304 303 301 299 297 295 292 289 285 283 280 277
310 309 308 307 306 305 303 299 297 297 298 300 301 302 304 305 306 306 307 309 309 310 310 310 310 310 309 309 308 307 306 305 304 301 299 296 292 289 286 284 281 278
310 309 308 306 305 304 300 297 296 296 298 299 300 302 304 305 306 307 308 309 310 310 311 311 311 311 311 310 309 309 308 307 305 302 299 296 292 289 286 284 282 280
309 308 307 306 304 301 297 295 295 296 297 299 300 302 304 305 306 307 308 309 310 311 312 312 312 312 312 311 310 310 309 307 305 302 298 295 292 289 287 285 283 281
309 308 306 305 302 299 296 295 296 297 298 299 301 302 303 304 306 307 308 310 311 311 312 312 312 312 312 312 311 311 309 307 304 300 297 294 292 290 289 288 286 284
309 308 306 304 300 297 295 295 296 297 298 299 301 302 303 304 305 307 308 310 311 312 313 313 313 313 313 313 312 311 309 306 302 298 295 293 292 292 291 289 288 287
310 309 306 303 299 297 296 296 297 298 299 300 302 302 304 305 306 308 309 311 312 313 314 314 314 314 314 314 313 311 307 303 299 296 295 294 293 293 292 291 290 289
311 309 306 303 300 298 298 298 299 300 301 302 302 303 304 306 307 309 310 312 313 314 315 315 315 315 314 314 313 310 305 301 298 296 295 295 294 294 293 293 292 291
311 309 307 304 301 300 300 301 301 302 302 303 304 304 306 307 308 310 311 313 314 315 315 315 315 315 315 315 313 309 304 300 298 297 296 295 295 294 293 292 291 291
312 309 307 305 303 302 302 302 303 303 303 304 305 306 307 308 309 310 312 313 314 315 315 315 316 316 317 316 313 307 303 300 298 297 296 295 294 293 292 291 290 289
312 309 307 306 304 304 304 304 304 304 305 306 307 307 308 309 309 311 312 313 314 314 315 315 316 317 317 316 311 306 302 299 298 298 296 295 294 293 291 290 289 289
311 309 308 306 305 305 305 305 305 305 306 307 307 308 308 308 309 310 311 313 314 314 315 316 316 318 318 315 310 306 303 302 300 299 299 297 296 294 294 294 294 294
311 309 308 307 306 306 305 305 305 306 306 307 307 307 308 308 309 310 311 313 314 314 315 316 317 318 318 315 309 305 303 302 300 299 298 297 296 296 298 299 299 298
312 309 308 307 307 306 306 306 306 306 307 307 307 307 308 308 310 311 312 313 314 315 316 316 318 319 319 314 308 304 302 299 298 297 295 294 295 298 300 300 299 297
313 310 309 308 307 307 307 307 307 306 307 307 307 308 308 309 310 311 312 313 314 315 316 317 319 320 319 313 307 303 301 297 295 293 292 293 296 299 299 299 298 297
313 311 310 309 308 307 307 307 307 307 307 307 307 308 309 310 310 311 312 314 315 316 317 318 320 322 319 313 306 303 300 296 292 292 293 296 297 298 298 297 297 297
314 312 311 310 309 308 308 308 308 307 307 307 308 309 310 310 310 312 313 315 316 317 318 319 322 323 319 313 306 303 299 295 293 293 295 296 297 297 298 298 298 298
316 314 312 311 310 310 310 310 309 308 308 309 309 309 310 311 312 313 315 316 318 318 319 320 323 324 320 312 305 302 299 295 294 296 297 298 298 299 300 299 299 298
318 316 314 313 312 311 311 311 310 309 309 309 309 310 312 313 314 315 316 317 319 319 319 321 324 325 320 312 306 303 299 297 299 301 300 300 301 302 301 301 300 299
319 317 316 314 314 313 312 311 311 310 310 311 311 312 313 314 314 315 317 318 319 320 320 322 325 326 321 314 308 303 300 301 303 302 301 301 302 302 301 301 301 300
321 319 318 316 316 315 314 313 313 312 312 312 312 313 314 315 316 316 318 319 320 320 322 323 325 326 322 314 307 303 302 302 301 299 299 300 301 301 301 301 303 302
322 320 319 318 317 316 316 316 315 314 313 313 313 314 314 316 317 317 318 320 321 321 323 323 324 325 322 314 307 304 302 300 297 296 297 298 298 298 299 302 305 305